SKYSAT-C6 (42992 NORAD) Tracking and Keplerian Element Data

This shows tracking and keplerian element data for the satellite.

Feedback or suggestion? Click here.




ElementValue
Catalog42992
NameSKYSAT-C6
Epoch Orbit40598
Epoch Day34.36297754
Epoch Year2025
RAAN166.3401
Inclination97.3919
Eccentricity0.0008643
Argument of Perigee150.4854
Mean Anonmoly209.6876
Mean Motion15.29916058
Decay Rate0.00019115
L11 42992U 17068F 25034.36297754 .00019115 00000+0 66088-3 0 9992
L22 42992 97.3919 166.3401 0008643 150.4854 209.6876 15.29916058405985



Live tracking and technical data element details for SKYSAT-C6 (NORAD 42992). SKYSAT-C6 can be tracked NOW for your location showing map with azimuth and elevation plus other details from your city location.







IsCatalogInMostPopularTable: catalog: 42992, numindb: 677
Update: records affected: 1



GetName: 42992 SKYSAT-C6

Hit Count: updated at: Wed, 18 Jun 2025 05:29:28 GMT